Miscellaneous Local Product
Issued by NWS North Platte, NE

Home | Current Version | Previous Version | Text Only | Print | Product List | Glossary On
Versions: 1 2 3 4 5 6 7 8 9 10 11 12 13 14 15 16 17 18 19 20 21 22 23 24 25 26 27 28 29 30 31 32 33 34 35 36 37 38 39 40 41 42 43 44 45 46 47 48 49 50
216
AXUS43 KLBF 091410
MISLBF


WESTERN AND NORTH CENTRAL NEBRASKA HOURLY WEATHER ROUNDUP
NATIONAL WEATHER SERVICE NORTH PLATTE NE
800 AM CST TUE FEB 09 2016

NOTE: "FAIR" INDICATES FEW OR NO CLOUDS BELOW 12,000 FEET WITH NO
SIGNIFICANT WEATHER AND/OR OBSTRUCTIONS TO VISIBILITY.

NOTE: STATIONS NOT REPORTING VARIABLES SUCH AS SKY/WEATHER OR
PRESSURE ARE PROVIDED BY THE NEBRASKA DEPARTMENT OF
ROADS...RAWS...AND APRS NETWORKS...AND ARE NOT UNDER
NATIONAL WEATHER SERVICE QUALITY CONTROL.

...OBSERVATIONS IN AND NEAR THE EASTERN PANHANDLE OF NEBRASKA...

CITY           SKY/WX    TMP DP  RH WIND       PRES   REMARKS
PINE RIDGE     CLOUDY    22  16  78 SW3       30.21F
CHADRON        CLOUDY    34  27  75 W7        30.23F WCI  28
ALLIANCE       CLEAR     22  19  89 W8        30.21S WCI  12
SIDNEY         CLEAR     30  23  75 NW14      30.24S WCI  19
CRESCENT LAKE    N/A     23  20  87 NE5         N/A  WCI  17
BIG SPRINGS      N/A     21  18  88 SW5         N/A  WCI  15
$$

...OBSERVATIONS IN NORTH CENTRAL NEBRASKA...

CITY           SKY/WX    TMP DP  RH WIND       PRES   REMARKS
VALENTINE      CLOUDY    24  19  81 NE10      30.26R WCI  14
THEDFORD       CLOUDY    30  20  66 N5        30.22R WCI  25
AINSWORTH      CLOUDY    22  16  77 N12       30.25R WCI  11
O`NEILL        CLOUDY    20  11  69 N13G21    30.25R WCI   7
ORD            CLOUDY    24  15  68 N15       30.24R WCI  11
BROKEN BOW     CLOUDY    26  19  74 N9        30.21S WCI  17
VALENTINE NWR    N/A     25  16  69 N8G16       N/A  WCI  16
BUTTE            N/A     18  11  73 N9G16       N/A  WCI   7
HALSEY           N/A     27  18  67 NW6G13      N/A  WCI  21
CHAMBERS         N/A     20   8  58 N6G15       N/A  WCI  12
EWING            N/A     16   8  71 N13G20      N/A  WCI   2
$$

...OBSERVATIONS IN SOUTHWEST NEBRASKA AND FAR NORTHEAST COLORADO...

CITY           SKY/WX    TMP DP  RH WIND       PRES   REMARKS
WRAY           FAIR      31  25  76 W13       30.25R WCI  22
HOLYOKE        FAIR      37  28  70 NW16      30.24R WCI  28
IMPERIAL       CLEAR     27  21  78 NW9       30.25R WCI  18
OGALLALA       CLOUDY    19  13  79 W5        30.24F WCI  12
NORTH PLATTE   CLOUDY    26  19  74 NW5       30.24R WCI  20
MCCOOK         CLOUDY    28  18  66 NW6       30.25S WCI  22
LEXINGTON      CLOUDY    26  19  76 W6        30.24S WCI  19
PAXTON           N/A     22  19  88 W3          N/A
STAPLETON        N/A     27  19  70 CALM        N/A
GOTHENBURG       N/A     26  18  71 W3          N/A
CALLAWAY         N/A     27  19  72 N10         N/A  WCI  17
$$

...OBSERVATIONS IN CENTRAL LINCOLN COUNTY AREA...

CITY           SKY/WX    TMP DP  RH WIND       PRES   REMARKS
N.P. AIRPORT   CLOUDY    26  19  74 NW5       30.24R WCI  20
N.P. DOWNTOWN    N/A     28  20  72 CALM        N/A
N.P. SOUTHEAST   N/A     28  19  69 CALM        N/A
N.P. HILLCREST   N/A     26  20  79 NW3         N/A
$$

...SOME OBSERVATIONS FROM AROUND THE REGION...

CITY           SKY/WX    TMP DP  RH WIND       PRES   REMARKS
DENVER         CLOUDY    33  16  49 SW12      30.30R WCI  24
LARAMIE        CLOUDY    19  12  74 E6        30.36R WCI  11
CHEYENNE       CLOUDY    35  19  52 NW12      30.31R WCI  27
SCOTTSBLUFF    CLEAR     28  22  78 NW10      30.26F WCI  19
RAPID CITY     CLEAR     22  15  75 CALM      30.21S
BISMARCK       CLOUDY    25  12  58 SW5       30.26S WCI  19
PIERRE         CLOUDY    23   9  55 N6        30.29S WCI  16
WINNER         CLOUDY    23  11  60 N6        30.28S WCI  16
SIOUX FALLS    PTCLDY     6  -1  73 NW12      30.23R WCI  -9
OMAHA          PTCLDY    13   6  74 NW17      30.20R WCI  -4
GRAND ISLAND   CLOUDY    20  12  71 NW12      30.24R WCI   8
KANSAS CITY    PTCLDY    16   7  67 N15G32    30.14R WCI   1
WICHITA        MOCLDY    34  19  54 N16       30.22R WCI  24
OKLAHOMA CITY  PTCLDY    38  13  35 NW8       30.25R WCI  32
LIBERAL        CLEAR     32  23  69 W13       30.27S WCI  22
HAYS           MOCLDY    30  16  55 NW9       30.25R WCI  22
GOODLAND       CLEAR     32  24  72 NW13      30.23R WCI  22
$$




USA.gov is the U.S. government's official web portal to all federal, state and local government web resources and services.